[[{"header":{"parameterUnit":"m.s-1","parameterCategory":2,"la1":30.2992,"la2":30.254,"lo1":-89.0895,"lo2":-89.0443,"dy":0.0025,"dx":0.0025,"nx":19,"ny":19,"refTime":"2026-04-15T09:00:00:Z","depth":"0","parameterNumber":2,"parameterNumberName":"U-component_of_CURRENTS"},"data":[0,0,0,0.3531,0.3533,0.3673,0.3674,0.3809,0.381,0,0,0,0,0,0,0,0,0,0,0,0.3477,0.3478,0.353,0.3534,0.3673,0.3674,0.3809,0.381,0,0,0,0,0,0,0,0,0,0,0,0.3477,0.3478,0.3479,0.3534,0.3673,0.3674,0.3808,0.3715,0,0,0,0,0,0,0,0,0,0,0.3585,0.3531,0.3477,0.3479,0.3535,0.3673,0.3674,0.3711,0.372,0.3732,0,0.3752,0,0.3785,0.3818,0.3818,0,0,0,0.3537,0.3523,0.357,0.3479,0.3536,0.3673,0.3611,0.3717,0.3728,0.3744,0.3754,0.376,0.3787,0.3818,0.3819,0.3994,0.3995,0,0,0.353,0.3495,0.3563,0.3577,0.357,0.3607,0.3616,0.3724,0.3727,0.3754,0.3763,0.3789,0.3819,0.382,0.3993,0.3994,0,0,0,0.3505,0.3489,0.3535,0.3571,0.3601,0.3611,0.3621,0.3722,0.374,0.3765,0.3791,0.382,0.3821,0.3992,0.3993,0.3986,0,0,0,0.3501,0.3475,0.3531,0.3511,0.3599,0.3667,0.3617,0.3733,0.3746,0.379,0.382,0.3822,0.399,0.3992,0.3984,0.3952,0,0,0,0.3471,0.3472,0.3489,0.3508,0.357,0.3667,0.3691,0.3737,0.3762,0.3818,0.3823,0.399,0.3992,0.3982,0.395,0.3934,0,0,0,0.3429,0.3451,0.3488,0.3528,0.3568,0.3686,0.3691,0.378,0.3833,0.382,0.3991,0.3993,0.3981,0.3949,0.3933,0.3725,0.3711,0,0,0.3433,0.345,0.3478,0.3515,0.3583,0.3667,0.3769,0.3835,0.3875,0.3949,0.3954,0.3985,0.395,0.3934,0.3871,0.3851,0,0,0,0.3465,0.3475,0.3507,0.3555,0.3651,0.3741,0.3836,0.388,0.3968,0.3918,0.4038,0.4017,0.4006,0.3882,0.3868,0.3711,0.4005,0.4004,0.4004,0.3393,0.3454,0.349,0.3578,0.3663,0.3807,0.388,0.3966,0.401,0.4059,0.4052,0.4088,0.396,0.3947,0.3791,0.4115,0.4115,0.4115,0.4115,0.3375,0.3392,0.3473,0.3527,0.3639,0.3745,0.3918,0.3973,0.4065,0.4099,0.4088,0.3932,0.393,0.377,0.4116,0.4116,0.4116,0.4116,0.4116,0.3304,0.3323,0.3357,0.3442,0.3537,0.3705,0.3801,0.3951,0.403,0.4058,0.3925,0.3922,0.3739,0.4066,0.4066,0.4066,0.4066,0.4066,0.4066,0.3213,0.3254,0.327,0.337,0.3412,0.3533,0.375,0.3814,0.3871,0.3889,0.3887,0.3729,0.4072,0.4027,0.4063,0.4064,0.4064,0.4064,0.4064,0.3125,0.3155,0.317,0.3195,0.329,0.3269,0.3512,0.3559,0.3656,0.3608,0.3471,0.3789,0.3758,0.3767,0.3716,0.3669,0.3669,0.3669,0.3669,0.3048,0.3078,0.3048,0.3052,0.3091,0.3142,0.3033,0.3113,0.3181,0.3133,0.3226,0.3175,0.3198,0.3134,0.3158,0.3095,0.2893,0.2892,0.2891,0.2978,0.2996,0.2915,0.2941,0.2966,0.2925,0.2681,0.2534,0.2681,0.2854,0.3052,0.3085,0.3015,0.3063,0.2971,0.3016,0.2918,0,0]},{"header":{"parameterUnit":"m.s-1","parameterCategory":2,"la1":30.2992,"la2":30.254,"lo1":-89.0895,"lo2":-89.0443,"dy":0.0025,"dx":0.0025,"nx":19,"ny":19,"refTime":"2026-04-15T09:00:00:Z","depth":"0","parameterNumber":3,"parameterNumberName":"V-component_of_CURRENTS"},"data":[0,0,0,0.0489,0.0489,0.05,0.05,0.0493,0.0492,0,0,0,0,0,0,0,0,0,0,0,0.0485,0.0486,0.0489,0.0489,0.0501,0.05,0.0493,0.0492,0,0,0,0,0,0,0,0,0,0,0,0.0485,0.0486,0.0486,0.0489,0.0501,0.05,0.0493,0.0488,0,0,0,0,0,0,0,0,0,0,0.0479,0.0478,0.0486,0.0486,0.049,0.0501,0.05,0.0488,0.0488,0.0483,0,0.0492,0,0.0495,0.0492,0.0492,0,0,0,0.0482,0.0477,0.0486,0.0486,0.049,0.0501,0.0493,0.0488,0.0489,0.0484,0.0492,0.0492,0.0495,0.0492,0.0492,0.0585,0.0586,0,0,0.0482,0.048,0.0486,0.0487,0.0501,0.0493,0.0494,0.0489,0.0489,0.0492,0.0492,0.0495,0.0492,0.0492,0.0584,0.0586,0,0,0,0.0485,0.0479,0.0488,0.0487,0.0492,0.0494,0.0494,0.0489,0.0494,0.0492,0.0495,0.0492,0.0492,0.0583,0.0585,0.0706,0,0,0,0.0484,0.0482,0.0488,0.0486,0.0493,0.0493,0.0495,0.0494,0.0494,0.0495,0.0492,0.0492,0.0582,0.0584,0.07,0.0767,0,0,0,0.0483,0.0481,0.0487,0.0486,0.0495,0.0493,0.0497,0.0494,0.0496,0.0492,0.0492,0.0581,0.0584,0.0695,0.0758,0.0831,0,0,0,0.0475,0.0512,0.0487,0.0531,0.0495,0.0551,0.0497,0.0523,0.0527,0.0492,0.0582,0.0585,0.0693,0.0752,0.0825,0.0864,0.0894,0,0,0.0524,0.0518,0.0548,0.0526,0.0596,0.0548,0.0631,0.0603,0.0565,0.0578,0.058,0.0702,0.0757,0.083,0.101,0.1036,0,0,0,0.0566,0.0592,0.0609,0.0638,0.0655,0.0703,0.0671,0.0676,0.0701,0.0581,0.072,0.0751,0.0793,0.0804,0.0826,0.071,0.0596,0.0596,0.0596,0.0636,0.065,0.0717,0.0748,0.0784,0.0807,0.0852,0.0855,0.0789,0.0831,0.0863,0.102,0.1036,0.1052,0.0932,0.0869,0.0869,0.087,0.087,0.0732,0.0779,0.0805,0.0875,0.0915,0.0981,0.1036,0.1018,0.1087,0.1003,0.1037,0.0948,0.1082,0.0946,0.0878,0.0877,0.0876,0.0875,0.0874,0.0773,0.0807,0.084,0.0943,0.105,0.1102,0.1249,0.1247,0.1213,0.1262,0.1243,0.124,0.1108,0.1267,0.1267,0.1268,0.1269,0.1269,0.1269,0.0807,0.085,0.0932,0.1033,0.1122,0.1256,0.1377,0.1443,0.1455,0.1398,0.1397,0.1164,0.1141,0.1111,0.128,0.1278,0.1276,0.1275,0.1275,0.0879,0.0897,0.1021,0.1105,0.1311,0.1489,0.1578,0.1697,0.1714,0.172,0.1407,0.1462,0.1426,0.1407,0.1383,0.1613,0.1613,0.1613,0.1613,0.0929,0.0946,0.1123,0.1271,0.1462,0.1608,0.1834,0.1884,0.1718,0.1573,0.1481,0.1376,0.1367,0.1319,0.1302,0.1272,0.1468,0.1468,0.1467,0.0992,0.1042,0.117,0.1314,0.1534,0.1748,0.194,0.1967,0.165,0.1446,0.1318,0.1324,0.1147,0.1142,0.1039,0.1026,0.0965,0,0]}],[{"header":{"parameterUnit":"m.s-1","parameterCategory":2,"la1":30.2992,"la2":30.254,"lo1":-89.0895,"lo2":-89.0443,"dy":0.0025,"dx":0.0025,"nx":19,"ny":19,"refTime":"2026-04-15T09:00:00:Z","depth":"2","parameterNumber":2,"parameterNumberName":"U-component_of_CURRENTS"},"data":[0,0,0,0.2769,0.277,0.2905,0.2906,0.3072,0.3073,0,0,0,0,0,0,0,0,0,0,0,0.2745,0.2745,0.2769,0.277,0.2904,0.2906,0.3072,0.3073,0,0,0,0,0,0,0,0,0,0,0,0.2745,0.2745,0.2746,0.2771,0.2904,0.2906,0.3072,0.2983,0,0,0,0,0,0,0,0,0,0,0.2858,0.283,0.2745,0.2746,0.2771,0.2904,0.2906,0.298,0.2989,0.2995,0,0.3002,0,0.301,0.308,0.308,0,0,0,0.2818,0.2822,0.2835,0.2746,0.2772,0.2904,0.2858,0.2985,0.2995,0.3007,0.3005,0.301,0.3013,0.308,0.3081,0.324,0.3241,0,0,0.281,0.2797,0.2827,0.284,0.2788,0.2853,0.2861,0.2992,0.3008,0.3005,0.3014,0.3015,0.3081,0.3082,0.3239,0.3241,0,0,0,0.2757,0.2792,0.2804,0.2834,0.2841,0.2855,0.2865,0.3004,0.3,0.3016,0.3017,0.3082,0.3083,0.3238,0.324,0.3259,0,0,0,0.2755,0.2757,0.28,0.2798,0.2838,0.2925,0.2874,0.2993,0.3006,0.3017,0.3082,0.3084,0.3237,0.3239,0.3256,0.323,0,0,0,0.2742,0.2756,0.2761,0.2796,0.2828,0.2923,0.2931,0.2997,0.3005,0.308,0.3084,0.3236,0.3239,0.3253,0.3228,0.3258,0,0,0,0.274,0.2733,0.2761,0.2778,0.2826,0.2895,0.2931,0.3014,0.308,0.3082,0.3237,0.324,0.3252,0.3226,0.3256,0.304,0.3032,0,0,0.2721,0.2731,0.2744,0.277,0.2795,0.2881,0.2979,0.308,0.3121,0.3199,0.3204,0.3257,0.3227,0.3258,0.3178,0.3164,0,0,0,0.2733,0.2729,0.2745,0.2779,0.2839,0.2919,0.3029,0.3103,0.3228,0.316,0.33,0.3281,0.3299,0.3167,0.3158,0.3251,0.3251,0.325,0.325,0.2689,0.2725,0.2744,0.2787,0.2854,0.2982,0.3074,0.32,0.3249,0.3322,0.333,0.3407,0.3269,0.3259,0.3387,0.3387,0.3387,0.3387,0.3387,0.2663,0.2673,0.2755,0.2778,0.2872,0.2971,0.3166,0.3237,0.3371,0.3392,0.341,0.3234,0.3249,0.339,0.3389,0.3389,0.3389,0.3389,0.3388,0.2644,0.264,0.2684,0.2768,0.2852,0.2998,0.3132,0.3287,0.3386,0.3408,0.3294,0.3291,0.338,0.3449,0.3449,0.3449,0.3449,0.3449,0.3449,0.2587,0.2625,0.2642,0.274,0.278,0.2915,0.3125,0.3199,0.3275,0.3282,0.3281,0.3427,0.3425,0.3386,0.345,0.345,0.345,0.345,0.345,0.2499,0.2539,0.2574,0.2606,0.2675,0.2684,0.2914,0.2989,0.3085,0.3049,0.3205,0.3211,0.3176,0.3181,0.3137,0.3133,0.3134,0.3133,0.3133,0.2425,0.2453,0.2458,0.2481,0.2519,0.2567,0.2469,0.2509,0.2704,0.2747,0.2764,0.2689,0.271,0.2647,0.2664,0.2608,0.2468,0.2466,0.2465,0.2347,0.2377,0.2348,0.2396,0.2416,0.2369,0.218,0.1999,0.2141,0.2442,0.2676,0.3083,0.3016,0.3032,0.297,0.2985,0.2909,0,0]},{"header":{"parameterUnit":"m.s-1","parameterCategory":2,"la1":30.2992,"la2":30.254,"lo1":-89.0895,"lo2":-89.0443,"dy":0.0025,"dx":0.0025,"nx":19,"ny":19,"refTime":"2026-04-15T09:00:00:Z","depth":"2","parameterNumber":3,"parameterNumberName":"V-component_of_CURRENTS"},"data":[0,0,0,0.0231,0.0231,0.0219,0.0218,0.0175,0.0175,0,0,0,0,0,0,0,0,0,0,0,0.0234,0.0235,0.0231,0.0231,0.0219,0.0218,0.0175,0.0175,0,0,0,0,0,0,0,0,0,0,0,0.0234,0.0235,0.0235,0.0231,0.0219,0.0218,0.0175,0.0187,0,0,0,0,0,0,0,0,0,0,0.0201,0.0208,0.0235,0.0235,0.0231,0.0219,0.0218,0.0188,0.0187,0.0178,0,0.0189,0,0.0188,0.0173,0.0173,0,0,0,0.0214,0.0209,0.0216,0.0235,0.0231,0.0219,0.022,0.0187,0.0186,0.0176,0.0188,0.0187,0.0188,0.0173,0.0172,0.023,0.0231,0,0,0.0215,0.0217,0.0218,0.0216,0.0244,0.022,0.0219,0.0186,0.0185,0.0188,0.0186,0.0187,0.0172,0.0172,0.0229,0.023,0,0,0,0.0228,0.0218,0.0226,0.0217,0.0222,0.022,0.0219,0.0186,0.0192,0.0186,0.0186,0.0172,0.0172,0.0229,0.023,0.0352,0,0,0,0.0228,0.0227,0.0226,0.0225,0.0223,0.0206,0.0219,0.0194,0.0191,0.0187,0.0172,0.0172,0.0228,0.0229,0.0346,0.0414,0,0,0,0.0232,0.0227,0.0233,0.0226,0.023,0.0207,0.021,0.0193,0.0192,0.0173,0.0172,0.0227,0.0229,0.0341,0.0405,0.0467,0,0,0,0.0223,0.0254,0.0233,0.0271,0.023,0.0256,0.021,0.0219,0.021,0.0172,0.0228,0.023,0.034,0.0399,0.0461,0.0457,0.0481,0,0,0.0262,0.0258,0.0284,0.0267,0.0319,0.0255,0.0313,0.0282,0.0238,0.0231,0.0232,0.0348,0.0404,0.0466,0.0574,0.0595,0,0,0,0.0297,0.0318,0.0327,0.0355,0.0356,0.0368,0.0332,0.0338,0.0352,0.0246,0.0355,0.0387,0.0422,0.0408,0.0425,0.0239,0.0239,0.0239,0.0239,0.0358,0.0374,0.0427,0.044,0.0453,0.0458,0.0486,0.0487,0.0423,0.0462,0.0492,0.0631,0.0618,0.0631,0.0488,0.0489,0.0489,0.049,0.049,0.0446,0.0488,0.051,0.0562,0.0577,0.0618,0.0647,0.0637,0.0699,0.0618,0.0644,0.0544,0.0657,0.05,0.0498,0.0497,0.0496,0.0495,0.0494,0.0497,0.052,0.0552,0.0641,0.072,0.0737,0.0869,0.0862,0.0821,0.0866,0.0812,0.0809,0.0702,0.0866,0.0867,0.0867,0.0868,0.0868,0.0869,0.0534,0.057,0.0641,0.0725,0.0799,0.0907,0.1002,0.1049,0.1028,0.0961,0.0959,0.0757,0.0745,0.0723,0.0878,0.0876,0.0875,0.0874,0.0874,0.0594,0.0606,0.0722,0.0797,0.097,0.1125,0.1181,0.1244,0.1248,0.1226,0.1003,0.0997,0.0955,0.0939,0.0921,0.1118,0.1118,0.1118,0.1118,0.063,0.0646,0.0804,0.094,0.1111,0.1229,0.138,0.1349,0.1245,0.1124,0.1123,0.1031,0.1022,0.0976,0.0959,0.0938,0.1141,0.1141,0.1141,0.0679,0.0723,0.0846,0.0979,0.1178,0.1347,0.1462,0.1381,0.1174,0.1139,0.1107,0.1124,0.0982,0.0969,0.0886,0.0865,0.0825,0,0]}],[{"header":{"parameterUnit":"m.s-1","parameterCategory":2,"la1":30.2992,"la2":30.254,"lo1":-89.0895,"lo2":-89.0443,"dy":0.0025,"dx":0.0025,"nx":19,"ny":19,"refTime":"2026-04-15T09:00:00:Z","depth":"4","parameterNumber":2,"parameterNumberName":"U-component_of_CURRENTS"},"data":[0,0,0,0.139,0.1392,0.1467,0.1467,0.1532,0.1533,0,0,0,0,0,0,0,0,0,0,0,0.1355,0.1356,0.139,0.1393,0.1467,0.1467,0.1532,0.1533,0,0,0,0,0,0,0,0,0,0,0,0.1355,0.1356,0.1357,0.1393,0.1467,0.1467,0.1532,0.1477,0,0,0,0,0,0,0,0,0,0,0.1406,0.1397,0.1356,0.1357,0.1394,0.1467,0.1467,0.1475,0.1481,0.1498,0,0.1524,0,0.1546,0.1539,0.1539,0,0,0,0.1368,0.1392,0.141,0.1357,0.1395,0.1467,0.1426,0.1478,0.1485,0.1506,0.1525,0.1528,0.1547,0.154,0.154,0.1659,0.166,0,0,0.1364,0.1367,0.1405,0.1415,0.1434,0.1424,0.1429,0.1482,0.1499,0.1526,0.153,0.1549,0.154,0.1541,0.1659,0.166,0,0,0,0.1369,0.1364,0.1381,0.1411,0.1437,0.1427,0.1432,0.1496,0.1502,0.1531,0.1549,0.1541,0.1542,0.1658,0.1659,0.173,0,0,0,0.1365,0.1369,0.1379,0.1382,0.1436,0.1475,0.1445,0.1497,0.1504,0.1549,0.1541,0.1543,0.1657,0.1659,0.1727,0.1743,0,0,0,0.1348,0.1368,0.1381,0.1382,0.1426,0.1475,0.1483,0.1498,0.1517,0.1539,0.1543,0.1657,0.1658,0.1724,0.1738,0.1803,0,0,0,0.134,0.1354,0.1382,0.1402,0.1426,0.1448,0.1482,0.1522,0.1543,0.1541,0.1658,0.1659,0.1723,0.1735,0.1799,0.1546,0,0,0,0.1341,0.1355,0.1361,0.1388,0.1413,0.1435,0.147,0.153,0.1573,0.1632,0.1635,0.1728,0.1738,0.1802,0.1638,0,0,0,0,0.1349,0.1357,0.1368,0.1398,0.1423,0.1477,0.1512,0.1572,0.1687,0.16,0.1739,0.1743,0.1781,0.1624,0.1666,0.1666,0.1666,0.1666,0.1666,0.1338,0.1351,0.1368,0.1395,0.143,0.1507,0.1572,0.1665,0.1688,0.1784,0.181,0.1916,0.1753,0.1827,0.1827,0.1827,0.1828,0.1828,0.1828,0.1323,0.1317,0.1373,0.1407,0.1479,0.1535,0.1663,0.1734,0.1892,0.1895,0.193,0.1719,0.1835,0.1834,0.1833,0.1832,0.1831,0.1831,0.1831,0.1293,0.1288,0.1342,0.1403,0.1508,0.1594,0.1698,0.183,0.1954,0.2019,0.1872,0.197,0.1954,0.206,0.206,0.2061,0.2061,0.2061,0.2062,0.123,0.127,0.1304,0.14,0.1467,0.1581,0.1762,0.1831,0.1959,0.1919,0.2056,0.1994,0.1986,0.1968,0.2067,0.2066,0.2066,0.2065,0.2065,0.1155,0.1197,0.1221,0.1281,0.1406,0.1475,0.1666,0.1745,0.1832,0.1838,0.1864,0.1872,0.1824,0.1821,0.1794,0.1846,0.1843,0.184,0,0.1104,0.112,0.1139,0.1177,0.1235,0.1385,0.1417,0.1526,0.1659,0.1618,0.1832,0.1858,0.1863,0.1802,0.1795,0.1759,0,0,0,0.1059,0.1064,0.1054,0.1087,0.1144,0.1249,0.1412,0.1408,0.1651,0.1626,0.1768,0.1787,0.1895,0.2085,0.203,0.2021,0.1989,0,0]},{"header":{"parameterUnit":"m.s-1","parameterCategory":2,"la1":30.2992,"la2":30.254,"lo1":-89.0895,"lo2":-89.0443,"dy":0.0025,"dx":0.0025,"nx":19,"ny":19,"refTime":"2026-04-15T09:00:00:Z","depth":"4","parameterNumber":3,"parameterNumberName":"V-component_of_CURRENTS"},"data":[0,0,0,0.0188,0.0188,0.02,0.02,0.0155,0.0154,0,0,0,0,0,0,0,0,0,0,0,0.0183,0.0183,0.0188,0.0189,0.02,0.02,0.0155,0.0154,0,0,0,0,0,0,0,0,0,0,0,0.0182,0.0183,0.0183,0.0189,0.02,0.02,0.0155,0.0159,0,0,0,0,0,0,0,0,0,0,0.0155,0.0163,0.0183,0.0183,0.0189,0.02,0.02,0.016,0.0159,0.0134,0,0.0142,0,0.0149,0.015,0.015,0,0,0,0.0182,0.0164,0.0167,0.0183,0.0189,0.02,0.0193,0.016,0.0159,0.0133,0.0142,0.0141,0.0149,0.015,0.015,0.0151,0.0151,0,0,0.0181,0.0182,0.0168,0.0166,0.0198,0.0193,0.0193,0.016,0.016,0.0142,0.014,0.0148,0.015,0.0149,0.015,0.0151,0,0,0,0.0184,0.0181,0.0186,0.0168,0.0176,0.0193,0.0194,0.0161,0.0163,0.0139,0.0147,0.0149,0.0149,0.015,0.015,0.0216,0,0,0,0.0183,0.0183,0.0186,0.0186,0.0177,0.0178,0.0196,0.0165,0.0162,0.0148,0.0149,0.0148,0.0149,0.015,0.0214,0.0257,0,0,0,0.0181,0.0183,0.0187,0.0186,0.0194,0.0179,0.0179,0.0165,0.0167,0.015,0.0148,0.0149,0.015,0.0211,0.0252,0.0272,0,0,0,0.0177,0.0199,0.0187,0.0212,0.0194,0.0217,0.0179,0.0189,0.0182,0.0149,0.0149,0.015,0.021,0.0249,0.0269,0.026,0,0,0,0.0205,0.0202,0.0218,0.0208,0.0251,0.0214,0.0241,0.0214,0.0186,0.0153,0.0154,0.0214,0.0251,0.0271,0.032,0,0,0,0,0.0227,0.0238,0.0249,0.0269,0.0276,0.0284,0.0255,0.0244,0.0236,0.0188,0.0217,0.0238,0.0249,0.0235,0.0155,0.0155,0.0155,0.0155,0.0155,0.0256,0.027,0.0309,0.0324,0.0333,0.0329,0.0335,0.0312,0.027,0.0286,0.0293,0.0358,0.0347,0.0286,0.0286,0.0287,0.0287,0.0287,0.0287,0.0305,0.0332,0.035,0.0392,0.0402,0.0417,0.0405,0.039,0.0398,0.0359,0.0364,0.0308,0.0294,0.0293,0.0292,0.0291,0.029,0.029,0.029,0.0324,0.0345,0.0372,0.0437,0.0485,0.0487,0.0534,0.0515,0.0471,0.0488,0.0448,0.0403,0.0395,0.048,0.0481,0.0481,0.0481,0.0481,0.0481,0.0337,0.0369,0.0422,0.0488,0.0543,0.0603,0.0623,0.0622,0.0572,0.0536,0.0506,0.0423,0.0417,0.0406,0.0486,0.0485,0.0485,0.0484,0.0484,0.0361,0.0381,0.0459,0.0519,0.0646,0.0692,0.0717,0.0681,0.0675,0.0631,0.0547,0.0543,0.0516,0.0508,0.0499,0.0609,0.0609,0.061,0,0.0377,0.039,0.0496,0.0591,0.0692,0.0742,0.0748,0.0731,0.0655,0.0645,0.0653,0.0561,0.0556,0.0525,0.0518,0.0508,0,0,0,0.0397,0.0427,0.0498,0.0594,0.0711,0.0738,0.075,0.0725,0.0677,0.0652,0.0614,0.0613,0.0552,0.05,0.0448,0.044,0.042,0,0]}]]